Location: Franzen
(48.6167°N, 15.3833°E)
Time: 21:36:04
(UTC+00:00)

Transit 2A - Pass Details

Date: 10 August 2021
Orbit: 594 x 964 km, 66.7° (Epoch: 26 September)

Event Time Altitude Azimuth Distance (km) Brightness Sun altitude
Rises 10:30:20 0° 327° (NNW) 3,216 8.9 56.1°
Reaches altitude 10° 10:32:45 10° 334° (NNW) 2,346 8.3 56.2°
Maximum altitude 10:37:55 43° 46° (NE) 1,162 7.3 56.4°
Drops below altitude 10° 10:43:35 10° 117° (ESE) 2,566 9.1 56.5°
Sets 10:46:19 0° 124° (SE) 3,549 9.7 56.6°
